Birmingham, AL

5:40 PM CDT on April 23, 2017 (GMT -0500)
Birmingham International

Weather History for KBHM - December, 2014

Change the Weather History Date:

Sunday, December 28, 2014

  Actual Average Record
Temperature  
Mean Temperature 56 °F 44 °F  
Max Temperature 61 °F 54 °F 76 °F (1984)
Min Temperature 50 °F 35 °F 7 °F (1925)
Degree Days  
Heating Degree Days 9 21  
Month to date heating degree days 429 527  
Since 1 July heating degree days 991 985  
Growing Degree Days 6 (Base 50)    
Moisture  
Dew Point 54 °F    
Average Humidity 92    
Maximum Humidity 100    
Minimum Humidity 84    
Precipitation  
Precipitation 0.94 in 0.13 in 3.40 in (1901)
Month to date precipitation 7.03 4.06  
Year to date precipitation 49.65 53.33  
Snow  
Snow 0.00 in 0.00 in - ()
Month to date snowfall 0.0 0.1  
Since 1 July snowfall 0.0 0.1  
Snow Depth 0.00 in    
Sea Level Pressure  
Sea Level Pressure 30.09 in    
Wind  
Wind Speed 5 mph (WNW)    
Max Wind Speed 14 mph    
Max Gust Speed 22 mph    
Visibility 7 miles    
Events Rain    
T = Trace of Precipitation, MM = Missing Value Source: NWS Daily Summary

Daily Weather History Graph

Daily Weather History Graph

Search for Another Location

Airport or City:

Trip Planner

Search our weather history database for the weather conditions in past years. The results will help you decide how hot, cold, wet, or windy it might be!

Date:

Astronomy

Dec. 28, 2014 Rise Set
Actual Time 6:50 AM CST 4:47 PM CST
Civil Twilight 6:22 AM CST 5:14 PM CST
Nautical Twilight 5:51 AM CST 5:45 PM CST
Astronomical Twilight 5:21 AM CST 6:16 PM CST
Moon 11:32 AM CST (12/28) No Moon Set
Length of Visible Light 10h 51m
Length of Day
9h 56m
Waxing Crescent, 50% of the Moon is Illuminated
Dec 28
Waxing Crescent
Dec 28
First Quarter
Jan 4
Full
Jan 13
Last Quarter
Jan 20
New

Hourly Weather History & Observations

Time (CST) Temp. Dew Point Humidity Pressure Visibility Wind Dir Wind Speed Gust Speed Precip Events Conditions
12:39 AM 57.9 °F 55.9 °F 93% 30.11 in 10.0 mi SSW 5.8 mph - 0.14 in Rain Light Rain
12:50 AM 57.2 °F 55.4 °F 94% 30.09 in 10.0 mi SE 6.9 mph - 0.16 in Rain Light Rain
12:53 AM 57.0 °F 55.9 °F 96% 30.08 in 10.0 mi SE 9.2 mph - 0.16 in Rain Light Rain
1:53 AM 57.0 °F 55.9 °F 96% 30.08 in 6.0 mi Variable 3.5 mph - 0.22 in Rain Light Rain
2:10 AM 57.9 °F 55.0 °F 90% 30.08 in 10.0 mi Calm Calm - 0.01 in Rain Light Rain
2:21 AM 57.9 °F 55.0 °F 90% 30.08 in 10.0 mi Variable 3.5 mph - 0.01 in   Overcast
2:53 AM 57.0 °F 55.0 °F 93% 30.06 in 5.0 mi SE 6.9 mph - 0.05 in Rain Heavy Rain
3:39 AM 57.0 °F 55.0 °F 93% 30.07 in 6.0 mi South 5.8 mph - 0.07 in Rain Light Rain
3:50 AM 57.2 °F 55.4 °F 94% 30.06 in 5.0 mi Variable 5.8 mph - 0.11 in Rain Rain
3:53 AM 57.0 °F 55.0 °F 93% 30.05 in 5.0 mi SSE 4.6 mph - 0.11 in Rain Light Rain
4:45 AM 57.0 °F 55.0 °F 93% 30.07 in 6.0 mi Variable 5.8 mph - 0.04 in Rain Light Rain
4:53 AM 57.0 °F 55.0 °F 93% 30.06 in 6.0 mi SSE 5.8 mph - 0.05 in Rain Light Rain
5:40 AM 57.0 °F 55.0 °F 93% 30.08 in 3.0 mi South 8.1 mph - 0.09 in Rain Rain
5:53 AM 57.0 °F 55.0 °F 93% 30.06 in 3.0 mi SSE 6.9 mph - 0.15 in Rain Heavy Rain
6:18 AM 55.9 °F 55.0 °F 97% 30.07 in 6.0 mi Calm Calm - 0.05 in Rain Rain
6:25 AM 55.9 °F 55.0 °F 97% 30.07 in 6.0 mi South 5.8 mph - 0.06 in Rain Light Rain
6:41 AM 57.0 °F 55.0 °F 93% 30.09 in 10.0 mi South 5.8 mph - 0.07 in Rain Light Rain
6:48 AM 57.2 °F 55.4 °F 94% 30.09 in 8.0 mi South 4.6 mph - 0.08 in Rain Light Rain
6:53 AM 55.9 °F 55.0 °F 97% 30.09 in 7.0 mi South 3.5 mph - 0.08 in Rain Light Rain
7:24 AM 57.0 °F 55.0 °F 93% 30.09 in 10.0 mi Calm Calm - 0.01 in   Overcast
7:53 AM 57.0 °F 55.0 °F 93% 30.09 in 10.0 mi WSW 3.5 mph - 0.01 in   Overcast
8:25 AM 57.0 °F 55.9 °F 96% 30.11 in 10.0 mi NW 4.6 mph - N/A   Overcast
8:53 AM 57.0 °F 55.9 °F 96% 30.12 in 8.0 mi WNW 3.5 mph - N/A   Overcast
9:31 AM 57.9 °F 55.9 °F 93% 30.12 in 8.0 mi WNW 3.5 mph - N/A   Overcast
9:53 AM 57.9 °F 55.9 °F 93% 30.11 in 3.0 mi Calm Calm - N/A   Overcast
10:45 AM 57.9 °F 57.0 °F 97% 30.12 in 3.0 mi WNW 4.6 mph - N/A   Overcast
10:53 AM 57.9 °F 57.0 °F 97% 30.10 in 3.0 mi NW 4.6 mph - N/A   Overcast
11:13 AM 59.0 °F 57.0 °F 93% 30.10 in 3.0 mi NNW 3.5 mph - 0.00 in   Light Drizzle
11:35 AM 59.0 °F 57.0 °F 93% 30.08 in 3.0 mi Calm Calm - 0.00 in   Overcast
11:53 AM 60.1 °F 57.0 °F 90% 30.07 in 3.0 mi Calm Calm - 0.00 in   Overcast
12:53 PM 61.0 °F 57.0 °F 87% 30.05 in 10.0 mi Calm Calm - N/A   Overcast
1:05 PM 61.0 °F 57.0 °F 87% 30.06 in 10.0 mi NW 3.5 mph - N/A   Overcast
1:53 PM 60.1 °F 57.0 °F 90% 30.05 in 10.0 mi NW 4.6 mph - N/A   Overcast
2:53 PM 60.1 °F 55.9 °F 86% 30.06 in 10.0 mi WNW 6.9 mph - N/A   Overcast
3:11 PM 59.0 °F 55.9 °F 90% 30.08 in 10.0 mi NW 8.1 mph - N/A   Overcast
3:53 PM 57.9 °F 55.0 °F 90% 30.08 in 10.0 mi NW 6.9 mph - N/A   Overcast
4:53 PM 55.9 °F 54.0 °F 93% 30.10 in 10.0 mi NNW 9.2 mph - N/A   Overcast
5:53 PM 54.0 °F 52.0 °F 93% 30.10 in 8.0 mi North 8.1 mph - N/A   Overcast
6:53 PM 52.0 °F 51.1 °F 97% 30.11 in 4.0 mi North 6.9 mph - N/A   Overcast
7:00 PM 52.0 °F 51.1 °F 97% 30.11 in 4.0 mi North 6.9 mph - N/A   Overcast
7:53 PM 51.1 °F 50.0 °F 96% 30.10 in 6.0 mi NNE 5.8 mph - N/A   Overcast
8:51 PM 51.8 °F 48.2 °F 88% 30.10 in 8.0 mi Calm Calm - N/A   Overcast
8:53 PM 51.1 °F 48.9 °F 92% 30.10 in 8.0 mi Calm Calm - N/A   Overcast
9:11 PM 51.1 °F 48.9 °F 92% 30.10 in 8.0 mi NNW 5.8 mph - N/A   Overcast
9:20 PM 51.1 °F 48.9 °F 92% 30.10 in 9.0 mi North 4.6 mph - N/A   Overcast
9:53 PM 50.0 °F 48.0 °F 93% 30.11 in 9.0 mi NW 8.1 mph - 0.00 in Rain Light Rain
10:40 PM 50.0 °F 48.0 °F 93% 30.13 in 2.0 mi NNW 3.5 mph - 0.04 in Rain Rain
10:51 PM 50.0 °F 48.2 °F 94% 30.12 in 4.0 mi Calm Calm - 0.07 in Rain Rain
10:53 PM 50.0 °F 48.9 °F 96% 30.12 in 4.0 mi ENE 3.5 mph - 0.07 in Rain Rain
11:53 PM 50.0 °F 48.0 °F 93% 30.12 in 7.0 mi Calm Calm - 0.07 in Rain Light Rain